User: anonymous   Login
Location: Seminole
(32.7190°N, 102.6440°W)
Time: 23:14:17
(UTC-06:00)
Language:

Meteor 2-10 - Orbit

View from above orbital plane
View from above orbital plane
View from above satellite
View from above satellite

Ground track
Ground track

The orbit data is extracted from the following two-line orbital elements,

1 14452U 83109A   14352.21325482  .00000155  00000-0  56207-4 0  6766
2 14452 081.1639 276.7351 0091452 145.7428 214.9698 14.26292495619019
Epoch (UTC): 18 December 2014 05:07:05
Eccentricity: 0.0091452
inclination: 81.1639°
perigee height: 738 km
apogee height: 870 km
right ascension of ascending node: 276.7351°
argument of perigee: 145.7428°
revolutions per day: 14.26292495
mean anomaly at epoch: 214.9698°
orbit number at epoch: 61901

The dashed part of the orbit path shows where the satellite is in the earth's shadow,  

DLR